Preview of NWS' New Version of Forecast
This preview is not operational and should not be used for support decisions.

Regional Weather Roundup (RWR)

Issued by National Weather Service (NWS)

                            
000
ASUS46 KPQR 210210
RWROR 

OREGON REGIONAL WEATHER ROUNDUP
NATIONAL WEATHER SERVICE PORTLAND OR
700 PM PDT TUE AUG 20 2019

NOTE: "FAIR" INDICATES FEW OR NO CLOUDS BELOW 12,000 FEET WITH
NO SIGNIFICANT WEATHER AND/OR OBSTRUCTIONS TO VISIBILITY.

ORZ001>013-210300-
NORTHWEST OREGON

  
CITY           SKY/WX    TMP DP  RH WIND       PRES   REMARKS
ASTORIA        CLOUDY    65  57  75 SW8G18    29.97S                  
TILLAMOOK      CLOUDY    68  54  60 SW7       30.02S                  
NEWPORT        PTSUNNY   64  55  72 S13       30.05S                  
FLORENCE       FAIR      64  54  68 S10       30.04S                  
PORTLAND       PTSUNNY   84  52  33 W14       29.92R                  
VANCOUVER WA   CLOUDY    82  53  36 SW8       29.92R                  
SCAPPOOSE      CLOUDY    75  59  57 N12       29.92R                  
HILLSBORO      CLOUDY    76  55  48 W10       29.94R                  
AURORA         PTSUNNY   75  55  49 SW8       29.97R                  
MCMINNVILLE    CLOUDY    74  54  49 W14       29.96R                  
SALEM          PTSUNNY   72  53  51 W10       29.97R                  
CORVALLIS      CLOUDY    70  58  65 NW6       30.00R                  
EUGENE         PTSUNNY   71  54  54 W9        30.02R                  
CRESWELL       SUNNY     75  57  53 NW8G15    29.98R                  
$$

ORZ021-028-210300-
SOUTHWEST OREGON

  
CITY           SKY/WX    TMP DP  RH WIND       PRES   REMARKS
NORTH BEND     CLOUDY    68  55  63 SW10      30.05S                  
BROOKINGS      PTSUNNY   65  56  72 CALM      30.08F                  
ROSEBURG       PTSUNNY   76  56  49 NW8       29.99R                  
SEXTON SUMMIT  CLOUDY    69  49  48 VRB3      30.10R                  
GRANTS PASS    FAIR      84  48  28 NW5       29.99R                  
MEDFORD        PTSUNNY   85  50  29 NW13G21   29.93R                  
$$

ORZ014>016-041-210300-
COLUMBIA GORGE

  
CITY           SKY/WX    TMP DP  RH WIND       PRES   REMARKS
TROUTDALE      PTSUNNY   82  54  37 W8        29.92R                  
HOOD RIVER     CLOUDY    79  54  41 W10G23    29.90R                  
THE DALLES     CLOUDY    85  55  35 W18G29    29.84R                  
$$

ORZ029>031-041-044-049-050-061>064-502-503-505>511-210300-
EASTERN OREGON

  
CITY           SKY/WX    TMP DP  RH WIND       PRES   REMARKS
MADRAS         MOCLDY    82  52  34 NW17G24   29.95R                  
REDMOND        MOCLDY    82  52  35 NW16      29.96R                  
BEND           MOCLDY    81  52  36 NW13      29.97S                  
PRINEVILLE     MOCLDY    81  52  36 W15G22    29.96R                  
KLAMATH FALLS  PTSUNNY   79  38  22 W7        30.05R                  
LAKEVIEW       PTCLDY    79  31  17 SW9       30.09R                  
HERMISTON      MOCLDY    88  53  30 SW3       29.80S                  
PENDLETON      PTCLDY    88  41  19 NW8       29.85S                  
JOHN DAY       CLEAR     89  34  14 W8        29.95S                  
MEACHAM        PTCLDY    79  45  29 CALM      30.01S                  
LA GRANDE      PTCLDY    87  48  25 W15       29.91R                  
BAKER CITY     PTCLDY    84  51  31 N15       29.93R                  
BURNS          CLEAR     88  34  14 W6        29.99S                  
ROME             N/A     95  26   8 NW7       29.95S                  
ONTARIO        CLEAR     96  50  20 E3        29.84S HX  93           
$$